SCP
0 0 0 0 0 0 0 0 0 0 0 0 0 0 0 0 0 0 0 0 0 0 0 0 0 0 0 0 0 0 0 0 0 0 0 0 0 0 0 0 0 0 0 0 0 0 -0 0 -0 0 -0 -0 -0 -0
0 0 0 0 0 0 0 0 0 0 0 0 0 0 0 0 0 0 0 0 0 0 0 0 0 0 0 0 0 0 0 0 0 0 0 0 0 0 0 0 0 0 0 0 0 0 0 0 -0 -0 -0 -0 0 0
0 0 0 0 0 0 0 0 0 0 0 0 0 0 0 0 0 0 0 0 0 0 0 0 0 0 0 0 0 0 0 0 0 0 0 0 0 0 0 0 0 0 0 0 0 0 0 0 0 0 0 0 0 0
0 0 0 0 0 0 0 0 0 0 0 0 0 0 0 0 0 0 0 0 0 0 0 0 0 0 0 0 0 0 0 0 0 0 0 0 0 0 0 0 0 0 0 0 0 0 0 0 0 0 0 0 0 0
0 0 0 0 0 0 0 0 0 0 0 0 0 0 0 0 0 0 0 0 0 0 0 0 0 0 0 0 0 0 0 0 0 0 0 0 0 0 0 0 0 0 0 0 0 0 0 0 0 0 0 0 0 0
0 0 0 0 0 0 0 0 0 0 0 0 0 0 0 0 0 0 0 0 0 0 0 0 0 0 0 0 0 0 0 0 0 0 0 0 0 0 0 0 0 0 0 0 0 0 0 0 0 0 0 0 0 0
0 0 0 0 0 0 0 0 0 0 0 0 0 0 0 0 0 0 0 0 0 0 0 0 0 0 0 0 0 0 0 0 0 0 0 0 0 0 0 0 0 0 0 0 0 0 0 0 0 0 0 0 0 0
0 0 0 0 0 0 0 0 0 0 0 0 0 0 0 0 0 0 0 0 0 0 0 0 0 0 0 0 0 0 0 0 0 0 0 0 0 0 0 0 0 0 0 0 0 0 0 0 0 0 0 0 0 0
0 0 0 0 0 0 0 0 0 0 0 0 0 0 0 0 0 0 0 0 0 0 0 0 0 0 0 0 0 0 0 0 0 0 0 0 0 0 0 0 0 0 0 0 0 0 0 0 0 0 0 0 0 0
0 0 0 0 0 0 0 0 0 0 0 0 0 0 0 0 0 0 0 0 0 0 0 0 0 0 0 0 0 0 0 0 0 0 0 0 0 0 0 0 0 0 0 0 0 0 0 0 0 0 0 0 0 0
0 0 0 0 0 0 0 0 0 0 0 0 0 0 0 0 0 0 0 0 0 0 0 0 0 0 0 0 0 0 0 0 0 0 0 0 0 0 0 0 0 0 0 0 0 0 0 0 0 0 0 0 0 0
0 0 0 0 0 0 0 0 0 0 0 0 0 0 0 0 0 0 0 0 0 0 0 0 0 0 0 0 0 0 0 0 0 0 0 0 0 0 0 0 0 0 0 0 0 0 0 0 0 0 0 0 0 0
0 0 0 0 0 0 0 0 0 0 0 0 0 0 0 0 0 0 0 0 0 0 0 0 0 0 0 0 0 0 0 0 0 0 0 0 0 0 0 0 0 0 0 0 0 0 0 0 0 0 0 0 0 0
0 0 0 0 0 0 0 0 0 0 0 0 0 0 0 0 0 0 0 0 0 0 0 0 0 0 0 0 0 0 0 0 0 0 0 0 0 0 0 0 0 0 0 0 0 0 0 0 0 0 0 0 0 0
0 0 0 0 0 0 0 0 0 0 0 0 0 0 0 0 0 0 0 0 0 0 0 0 0 0 0 0 0 0 0 0 0 0 0 0 0 0 0 0 0 0 0 0 0 0 0 0 0 0 0 0 0 0
0 0 0 0 0 0 0 0 0 0 0 0 0 0 0 0 0 0 0 0 0 0 0 0 0 0 0 0 0 0 0 0 0 0 0 0 0 0 0 0 0 0 0 0 0 0 0 0 0 0 0 0 0 0
0 0 0 0 0 0 0 0 0 0 0 0 0 0 0 0 0 0 0 0 0 0 0 0 0 0 0 0 0 0 0 0 0 0 0 0 0 0 0 0 0 0 0 0 0 0 0 0 0 0 0 0 0 0
0 0 0 0 0 0 0 0 0 0 0 0 0 0 0 0 0 0 0 0 0 0 0 0 0 0 0 0 0 0 0 0 0 0 0 0 0 0 0 0 0 0 0 0 0 0 0 0 0 0 0 0 0 0
0 0 0 0 0 0 0 0 0 0 0 0 0 0 0 0 0 0 0 0 0 0 0 0 0 0 0 0 0 0 0 0 0 0 0 0 0 0 0 0 0 0 0 0 0 0 0 0 0 0 0 0 0 0
0 0 0 0 0 0 0 0 0 0 0 0 0 0 0 0 0 0 0 0 0 0 0 0 0 0 0 0 0 0 0 0 0 0 0 0 0 0 0 0 0 0 0 0 0 0 0 0 0 0 0 0 0 0
0 0 0 0 0 0 0 0 0 0 0 0 0 0 0 0 0 0 0 0 0 0 0 0 0 0 0 0 0 0 0 0 0 0 0 0 0 0 0 0 0 0 0 0 0 0 0 0 0 0 0 0 0 0
0 0 0 0 0 0 0 0 0 0 0 0 0 0 0 0 0 0 0 0 0 0 0 0 0 0 0 0 0 0 0 0 0 0 0 0 0 0 0 0 0 0 0 0 0 0 0 0 0 0 0 0 0 0
0 0 0 0 0 0 0 0 0 0 0 0 0 0 0 0 0 0 0 0 0 0 0 0 0 0 0 0 0 0 0 0 0 0 0 0 0 0 0 0 0 0 0 0 0 0 0 0 0 0 0 0 0 0
0 0 0 0 0 0 0 0 0 0 0 0 0 0 0 0 0 0 0 0 0 0 0 0 0 0 0 0 0 0 0 0 0 0 0 0 0 0 0 0 0 0 0 0 0 0 0 0 0 0 0 0 0 0
0 0 0 0 0 0 0 0 0 0 0 0 0 0 0 0 0 0 0 0 0 0 0 0 0 0 0 0 0 0 0 0 0 0 0 0 0 0 0 0 0 0 0 0 0 0 0 0 0 0 0 0 0 0
0 0 0 0 0 0 0 0 0 0 0 0 0 0 0 0 0 0 0 0 0 0 0 0 -0 -0 -0 0 0 0 0 0 0 0 0 0 0 0 0 0 0 0 0 0 0 0 0 0 0 0 0 0 0 0
0 0 0 0 0 0 0 0 0 0 0 0 0 0 0 0 0 0 0 -0 -0 0 0 0 0 0 0 0 0 0 0 -0 0 0 0 0 0 0 0 0 0 0 0 0 0 0 0 0 0 0 0 0 0 0
0 0 0 0 0 0 0 0 0 0 0 0 0 0 0 0 0 -0 -0 0 0 0 0 -0 -0 -0 0 0 0 0 0 0 0 -0 0 0 0 0 0 0 0 0 0 0 0 0 0 0 -0 0 0 -0 0 0
0 0 0 0 0 0 0 0 0 0 0 0 0 0 0 0 0 0 0 0 0 -0 0 0 0 -0 -0 0 0 0 0 0 0 0 0 0 0 0 0 0 0 0 0 0 0 0 0 0 -0 -0 -0 -0 -0 0
0 0 0 0 0 0 0 0 0 0 0 0 0 0 0 0 0 0 0 0 0 0 0 -0 -0 -0 0 0 0 0 0 0 0 0 0 0 0 0 0 0 0 0 0 0 0 0 0 0 -0 -0 -0 0 -0 0
0 0 0 0 0 0 0 0 0 0 0 0 0 0 0 0 0 0 0 0 0 0 0 0 0 -0 -0 0 0 0 0 0 0 0 0 0 0 0 0 0 0 0 0 0 0 0 0 0 0 -0 -0 0 0 0
0 0 0 0 0 0 0 0 0 0 0 0 0 0 0 0 0 0 0 0 0 0 0 0 0 0 -0 -0 -0 -0 0 0 0 0 0 0 0 0 0 0 0 0 0 0 0 0 0 0 0 -0 -0 -0 -0 -0
0 0 0 0 0 0 0 0 0 0 0 0 0 0 0 0 0 0 0 0 0 0 0 0 0 0 -0 -0 0 0 0 0 0 0 0 0 0 0 0 0 0 0 0 0 0 0 0 0 0 0 0 -0 -0 -0
Wind_Speed_500mb
37 35 38 37 37 42 36 36 37 36 38 35 36 31 38 34 28 29 39 38 40 49 67 74 71 61 44 35 22 27 25 6 5 7 6 14 8 19 11 27 29 25 17 18 14 22 17 45 38 21 8 28 9 9
40 39 42 43 44 37 43 40 38 37 41 40 36 36 35 35 37 33 49 43 45 54 65 75 95 92 83 79 66 37 29 10 12 8 7 7 13 12 24 25 25 25 18 16 15 19 31 49 24 17 17 21 5 8
43 43 46 44 44 47 43 49 43 41 41 42 42 39 36 35 36 37 48 52 50 54 65 48 36 30 36 46 40 36 36 35 23 28 19 11 20 16 21 21 26 20 28 15 22 20 23 30 15 13 11 9 9 8
42 45 47 47 48 51 49 45 51 42 42 46 45 45 38 35 41 37 48 54 58 37 20 27 28 42 33 36 44 57 59 48 37 28 31 15 17 22 21 28 28 28 29 27 30 31 41 30 22 17 14 12 15 16
46 47 49 50 52 53 52 53 51 47 48 47 45 43 48 42 44 45 54 64 67 41 18 36 60 79 46 53 60 50 52 54 31 18 15 20 30 26 24 26 32 34 35 26 27 37 22 32 12 21 20 18 15 17
52 52 53 54 54 52 56 55 53 52 49 49 45 48 52 47 44 53 32 21 26 39 17 10 18 36 43 36 33 37 42 43 43 20 16 30 50 33 16 22 33 50 55 52 38 46 30 19 23 27 25 19 19 21
61 60 61 60 57 57 56 59 55 54 51 50 46 52 53 48 52 52 25 22 6 13 9 14 12 12 10 16 19 29 39 26 30 25 24 39 37 39 24 37 63 54 55 51 46 36 25 29 12 24 23 24 31 34
69 67 65 65 61 58 57 61 58 55 52 49 49 51 56 66 69 47 51 48 38 19 13 9 11 9 7 8 8 10 9 11 17 14 8 6 10 12 13 24 32 35 29 37 44 41 36 28 24 24 29 31 33 38
72 72 70 68 63 60 60 60 58 55 50 47 52 56 62 48 13 18 39 42 43 32 12 14 7 6 3 4 6 4 4 6 6 6 5 4 8 16 23 26 26 26 19 16 20 25 25 28 28 30 31 33 42 49
74 75 74 70 66 62 58 55 55 53 45 51 50 27 13 12 14 13 14 11 20 24 21 10 11 7 3 2 2 4 3 4 5 3 4 9 13 48 42 37 30 27 26 22 16 13 21 28 25 28 37 43 48 54
77 76 74 70 67 64 60 53 50 50 51 44 13 18 22 17 11 12 9 11 13 9 17 13 26 14 6 6 3 1 2 0 6 4 5 7 9 9 20 19 21 21 22 20 18 19 22 28 35 41 47 49 52 57
72 71 69 68 66 63 58 54 47 61 58 41 26 25 19 14 11 8 9 4 12 10 12 7 9 11 6 9 5 2 4 1 11 3 5 8 8 15 15 16 21 19 18 19 21 24 29 35 37 40 46 51 53 54
66 65 64 63 61 58 55 54 48 69 62 46 20 11 8 12 12 16 18 11 8 15 19 14 6 7 7 7 4 5 7 10 1 6 8 11 4 12 18 22 25 23 20 21 26 31 34 36 38 40 44 44 47 51
67 66 65 64 63 60 58 55 51 74 50 24 22 15 14 14 15 14 10 5 8 11 26 21 12 6 6 7 2 8 3 3 7 8 13 8 20 26 27 27 26 22 23 27 29 31 34 36 38 36 36 38 43 47
73 73 73 70 68 65 63 61 66 86 65 24 20 15 21 19 8 9 16 12 13 26 31 16 9 7 4 6 6 2 6 11 12 10 6 7 11 18 32 32 26 26 27 28 27 29 32 32 32 32 31 36 39 42
75 78 78 76 75 70 67 66 72 92 36 30 26 13 6 5 10 15 21 16 29 31 22 10 7 6 11 6 7 17 8 15 7 6 15 18 14 21 26 24 25 26 25 26 28 26 26 26 28 32 34 34 34 37
77 84 78 75 71 67 62 69 66 39 28 19 15 49 42 27 24 22 31 29 47 40 8 6 13 16 6 6 9 10 12 6 5 16 21 22 22 24 23 26 26 25 23 25 25 22 21 23 25 29 32 31 31 32
73 78 68 58 63 73 82 69 40 28 22 20 13 40 43 33 29 25 34 45 44 28 21 11 12 11 12 13 10 9 19 29 31 37 46 45 35 33 28 26 26 24 23 24 22 19 18 20 22 23 28 31 31 33
77 76 72 69 57 54 21 18 39 12 27 17 25 27 28 21 35 23 38 57 42 37 22 14 9 11 11 11 9 26 21 21 27 32 32 30 38 39 34 30 29 27 24 23 20 18 16 17 18 20 23 27 31 32
74 71 67 58 49 40 18 16 18 11 4 9 8 13 13 10 21 25 30 46 36 18 7 10 11 2 7 18 22 31 36 42 49 44 46 45 37 43 42 34 31 29 26 24 20 18 15 15 13 14 18 22 27 30
69 71 54 52 47 43 23 10 5 3 3 3 10 13 10 15 12 11 13 32 13 11 7 16 12 23 41 52 59 65 68 60 57 51 48 40 41 36 36 36 36 33 29 25 23 19 15 15 12 11 14 18 23 27
46 50 45 40 25 17 8 7 6 3 1 3 8 6 10 5 10 11 25 10 11 7 9 10 28 41 52 59 64 62 65 66 62 59 61 58 52 41 40 41 39 36 31 27 24 22 17 16 13 11 13 16 20 23
25 17 9 8 3 13 8 8 3 5 2 4 3 4 4 5 5 15 5 6 8 3 8 19 36 43 51 57 53 50 40 41 47 49 53 52 48 45 37 35 33 35 31 25 24 23 20 17 13 10 11 15 17 17
19 10 16 14 21 7 8 8 5 3 3 1 1 5 6 6 4 1 2 3 2 16 24 34 48 57 60 58 59 47 42 41 39 33 32 41 41 43 38 36 30 29 29 25 23 22 20 17 12 10 8 10 10 12
9 20 15 16 15 11 9 7 7 4 6 7 3 5 4 3 1 3 4 6 16 25 36 49 51 46 47 61 57 52 42 40 41 32 20 28 37 39 36 36 33 31 30 27 23 21 18 16 12 8 5 3 5 8
13 13 14 15 11 11 10 11 11 11 7 5 7 3 3 3 3 7 6 17 27 43 53 58 64 68 54 49 55 54 48 43 33 24 15 9 17 28 30 28 27 28 27 25 23 20 17 16 12 8 5 3 4 6
12 10 15 16 14 12 8 6 6 5 9 11 7 8 5 6 8 6 19 29 45 53 53 53 51 52 58 60 54 49 41 33 24 16 13 14 14 21 26 22 22 20 16 21 19 18 16 15 13 10 9 7 5 4
8 13 11 35 11 7 7 6 8 9 6 10 16 5 6 6 7 17 25 44 46 45 50 56 53 48 47 46 43 34 22 16 12 8 6 7 9 12 18 19 17 17 16 19 18 18 16 16 14 12 11 8 4 1
10 32 36 10 9 7 8 6 6 8 10 14 5 5 5 8 20 32 43 39 42 49 55 62 62 52 42 27 22 14 11 11 8 9 6 6 6 7 12 17 16 16 16 17 17 17 18 18 17 16 15 12 7 4
13 36 12 9 5 5 7 14 15 31 30 8 7 4 12 17 37 48 54 52 52 52 51 53 57 60 52 39 29 22 19 20 24 19 14 9 11 10 8 12 16 16 15 16 16 16 18 18 19 17 16 15 11 9
21 13 8 6 9 13 29 41 35 23 7 3 13 13 15 9 16 60 56 59 57 50 54 55 55 57 58 57 51 38 30 24 26 23 15 5 5 6 1 6 10 12 13 15 15 15 16 15 17 18 16 15 15 13
11 5 12 7 10 27 35 29 19 6 6 3 3 9 8 2 6 34 64 66 69 73 56 49 51 51 52 51 51 49 44 36 27 23 16 5 3 5 4 3 6 8 10 13 14 15 15 16 16 18 19 18 18 17
15 10 7 10 12 13 20 30 10 16 1 2 3 6 5 6 11 16 53 66 70 68 71 43 50 47 47 50 52 54 53 49 39 27 17 12 8 6 6 4 3 4 7 10 11 13 15 17 19 20 21 22 22 22
Wind_Direction_500mb
286 289 288 287 289 296 294 296 295 297 300 301 304 305 303 300 292 292 285 277 273 275 278 274 275 269 263 253 263 285 312 196 250 239 267 290 249 280 282 279 298 291 295 287 307 298 270 6 344 342 316 322 310 345
287 288 284 291 295 286 290 289 293 291 296 298 296 297 298 300 296 289 283 288 280 266 265 277 278 274 255 258 261 263 238 286 267 274 261 276 267 263 272 279 285 278 267 302 283 275 307 307 290 297 310 298 308 311
285 282 287 290 284 289 288 289 290 284 287 291 294 296 289 295 301 294 284 287 278 281 288 272 271 300 266 245 248 233 236 250 242 250 278 273 265 272 271 265 266 268 267 252 267 264 278 298 272 286 293 286 294 307
290 289 290 286 287 284 286 286 290 285 282 284 287 291 292 292 309 294 279 279 277 275 276 284 281 265 272 254 228 232 253 258 257 255 264 261 266 257 264 274 273 270 287 261 260 273 277 257 257 250 253 259 272 284
295 294 291 288 283 284 284 285 281 282 283 283 287 286 283 289 302 296 286 279 274 246 272 294 294 292 262 250 242 246 239 241 247 242 233 248 253 267 265 266 259 260 259 257 261 272 267 279 269 264 267 263 265 277
293 294 293 288 284 283 285 282 282 282 282 284 284 285 284 293 298 302 308 268 260 230 261 292 282 274 274 263 229 225 230 240 231 241 250 246 249 260 271 268 264 257 256 253 257 271 246 259 261 262 258 258 271 275
289 290 290 289 285 281 277 281 283 282 280 281 283 282 287 290 278 278 265 270 284 168 257 286 269 260 264 238 234 234 236 230 238 247 241 255 257 252 259 264 269 273 266 251 249 248 267 262 243 233 260 261 275 282
286 287 287 287 282 279 280 279 282 283 281 280 282 280 283 293 292 283 238 247 244 223 232 259 267 272 238 211 215 219 212 221 227 249 270 257 273 225 250 252 267 271 262 234 246 249 246 251 257 266 272 276 276 284
285 285 285 286 280 280 277 278 281 282 283 278 277 286 293 286 223 229 225 227 224 204 228 221 233 289 216 233 246 261 237 252 246 247 211 246 227 227 243 252 256 257 237 251 233 239 243 254 267 276 279 280 287 291
285 285 285 284 280 276 275 279 279 278 275 272 276 291 257 222 222 274 254 221 209 218 233 244 213 233 301 201 206 286 209 279 265 161 308 229 252 253 254 256 257 266 240 223 193 237 250 263 273 278 284 289 291 293
285 285 283 280 277 275 274 274 274 267 260 262 235 221 238 240 251 234 228 211 185 233 224 233 211 228 227 224 225 4 327 227 263 149 260 246 260 237 231 235 232 216 215 219 233 252 264 274 283 289 293 295 297 298
282 280 278 277 275 273 271 267 264 249 244 243 244 238 246 229 207 232 212 181 217 233 193 189 171 191 195 179 204 157 256 178 253 16 253 256 252 229 222 223 206 204 214 233 253 270 283 289 292 292 294 298 300 300
284 282 280 278 276 272 267 260 256 249 241 246 222 222 185 183 215 215 201 203 221 189 179 165 147 161 137 159 115 197 227 233 353 232 238 241 267 242 219 196 191 204 230 258 279 289 293 297 297 300 303 305 304 304
284 281 280 278 276 272 266 259 252 235 216 196 180 213 210 195 232 200 212 166 154 139 151 139 119 172 153 160 111 229 178 296 250 238 239 243 243 245 216 201 207 226 254 275 283 290 295 299 302 306 308 309 308 309
284 282 281 279 275 269 263 256 248 227 208 187 183 221 213 217 208 200 196 161 156 154 139 116 106 174 149 201 201 288 226 242 232 236 240 287 268 227 202 210 227 252 269 277 283 294 298 300 304 312 317 317 316 315
287 285 279 278 276 269 263 257 237 209 220 205 202 206 141 186 190 205 198 177 173 154 138 121 131 171 225 193 183 216 231 225 235 224 259 275 259 207 204 224 252 263 269 277 287 294 297 303 312 321 327 327 325 320
294 289 287 284 278 273 262 252 220 209 222 212 218 218 222 233 223 197 187 184 177 153 178 157 190 211 102 206 230 212 223 239 292 302 299 291 253 225 233 251 259 261 267 278 286 291 297 304 315 324 329 335 333 330
287 288 290 296 281 274 256 245 222 218 225 211 205 217 207 213 200 193 188 176 162 183 163 192 132 192 212 208 220 221 239 266 283 292 293 283 254 239 252 258 259 259 268 277 280 282 291 301 315 330 335 340 344 344
291 289 288 287 287 283 261 233 227 232 216 219 224 219 198 190 199 200 190 182 183 171 162 160 211 215 221 223 259 282 294 296 299 296 296 284 255 248 254 256 255 258 267 270 270 270 281 295 314 333 341 347 349 349
289 290 287 280 275 276 254 230 216 254 235 199 174 150 147 152 175 173 170 177 169 159 180 207 222 338 337 345 321 306 301 298 299 297 293 289 280 254 250 252 250 254 261 261 258 256 267 282 303 329 339 346 349 352
296 297 290 284 271 259 261 245 267 349 325 154 150 140 112 131 123 140 138 163 174 213 233 246 268 289 301 304 304 302 296 289 273 268 273 280 283 260 248 247 242 248 253 254 250 249 253 267 286 314 333 343 345 345
295 292 285 267 247 226 198 186 131 133 71 94 126 117 114 128 129 130 151 171 222 238 233 302 322 328 325 322 315 308 301 291 276 269 266 263 259 246 247 249 242 246 249 249 245 243 247 257 274 300 325 338 340 344
321 313 279 355 43 41 13 76 16 24 209 140 145 140 99 87 75 143 210 235 258 258 312 325 337 337 331 337 332 330 321 310 293 275 264 259 248 240 243 247 244 242 245 243 240 237 241 250 262 288 320 335 345 354
357 27 23 28 22 23 7 17 22 46 99 61 229 97 53 44 86 42 303 291 1 358 342 333 332 329 330 332 339 336 332 325 312 296 264 251 245 236 240 248 245 238 239 238 235 231 237 244 255 278 312 336 359 17
57 14 21 2 6 344 0 359 346 327 50 29 47 68 54 23 10 56 3 353 348 335 323 322 318 315 312 318 325 326 324 323 327 311 302 252 239 235 241 245 240 236 234 233 232 231 234 238 242 255 281 348 32 39
60 9 22 355 338 356 346 339 8 2 1 55 41 53 343 320 27 53 30 340 333 330 326 325 323 319 314 313 308 310 313 316 313 309 297 283 237 236 242 244 241 235 235 229 226 225 226 231 230 232 223 172 88 46
40 354 339 346 317 306 283 309 298 359 28 22 5 354 350 28 49 22 340 344 330 337 338 337 329 319 312 311 308 302 301 306 296 285 283 280 260 233 226 240 238 233 238 222 221 220 217 222 217 211 203 179 139 78
18 360 340 320 329 338 305 351 23 19 30 16 329 342 19 48 20 337 326 344 346 350 355 355 350 338 327 317 309 303 297 312 296 281 285 302 287 242 228 228 226 227 214 207 213 213 209 215 205 205 207 201 180 113
338 340 339 319 322 320 11 24 4 353 359 355 294 346 65 64 14 7 6 5 9 9 6 4 6 3 3 6 10 13 2 356 1 354 342 346 327 289 252 232 221 212 207 209 209 212 210 211 203 199 209 208 217 261
317 334 314 312 4 299 343 329 313 314 319 285 212 134 104 68 38 31 26 23 19 15 14 14 13 18 19 21 26 28 28 23 10 356 330 331 340 322 281 217 212 214 213 214 214 215 217 222 220 210 217 228 235 250
296 307 299 285 270 296 322 325 329 334 13 73 176 167 163 159 57 27 26 27 23 23 22 20 23 23 25 27 25 19 13 1 355 352 343 259 340 358 17 200 207 211 216 218 218 220 221 220 232 236 235 247 259 270
296 309 339 299 288 308 319 328 337 356 16 52 133 180 196 132 79 25 27 31 29 26 24 24 21 20 25 28 28 24 19 12 8 12 16 16 309 341 342 261 231 225 229 231 231 231 235 237 238 247 252 253 258 267
296 302 290 291 301 322 326 340 344 358 28 67 123 154 142 78 82 41 36 37 30 24 21 21 28 22 21 24 29 29 27 26 26 24 22 25 22 8 349 335 299 264 251 248 248 249 249 252 256 259 263 265 268 271
Wind_Speed_850mb
37 35 38 37 37 42 36 36 37 36 38 35 36 31 38 34 28 29 39 38 40 49 67 74 71 61 44 35 22 27 25 6 5 7 6 14 8 19 11 27 29 25 17 18 14 22 17 45 38 21 8 28 9 9
40 39 42 43 44 37 43 40 38 37 41 40 36 36 35 35 37 33 49 43 45 54 65 75 95 92 83 79 66 37 29 10 12 8 7 7 13 12 24 25 25 25 18 16 15 19 31 49 24 17 17 21 5 8
43 43 46 44 44 47 43 49 43 41 41 42 42 39 36 35 36 37 48 52 50 54 65 48 36 30 36 46 40 36 36 35 23 28 19 11 20 16 21 21 26 20 28 15 22 20 23 30 15 13 11 9 9 8
42 45 47 47 48 51 49 45 51 42 42 46 45 45 38 35 41 37 48 54 58 37 20 27 28 42 33 36 44 57 59 48 37 28 31 15 17 22 21 28 28 28 29 27 30 31 41 30 22 17 14 12 15 16
46 47 49 50 52 53 52 53 51 47 48 47 45 43 48 42 44 45 54 64 67 41 18 36 60 79 46 53 60 50 52 54 31 18 15 20 30 26 24 26 32 34 35 26 27 37 22 32 12 21 20 18 15 17
52 52 53 54 54 52 56 55 53 52 49 49 45 48 52 47 44 53 32 21 26 39 17 10 18 36 43 36 33 37 42 43 43 20 16 30 50 33 16 22 33 50 55 52 38 46 30 19 23 27 25 19 19 21
61 60 61 60 57 57 56 59 55 54 51 50 46 52 53 48 52 52 25 22 6 13 9 14 12 12 10 16 19 29 39 26 30 25 24 39 37 39 24 37 63 54 55 51 46 36 25 29 12 24 23 24 31 34
69 67 65 65 61 58 57 61 58 55 52 49 49 51 56 66 69 47 51 48 38 19 13 9 11 9 7 8 8 10 9 11 17 14 8 6 10 12 13 24 32 35 29 37 44 41 36 28 24 24 29 31 33 38
72 72 70 68 63 60 60 60 58 55 50 47 52 56 62 48 13 18 39 42 43 32 12 14 7 6 3 4 6 4 4 6 6 6 5 4 8 16 23 26 26 26 19 16 20 25 25 28 28 30 31 33 42 49
74 75 74 70 66 62 58 55 55 53 45 51 50 27 13 12 14 13 14 11 20 24 21 10 11 7 3 2 2 4 3 4 5 3 4 9 13 48 42 37 30 27 26 22 16 13 21 28 25 28 37 43 48 54
77 76 74 70 67 64 60 53 50 50 51 44 13 18 22 17 11 12 9 11 13 9 17 13 26 14 6 6 3 1 2 0 6 4 5 7 9 9 20 19 21 21 22 20 18 19 22 28 35 41 47 49 52 57
72 71 69 68 66 63 58 54 47 61 58 41 26 25 19 14 11 8 9 4 12 10 12 7 9 11 6 9 5 2 4 1 11 3 5 8 8 15 15 16 21 19 18 19 21 24 29 35 37 40 46 51 53 54
66 65 64 63 61 58 55 54 48 69 62 46 20 11 8 12 12 16 18 11 8 15 19 14 6 7 7 7 4 5 7 10 1 6 8 11 4 12 18 22 25 23 20 21 26 31 34 36 38 40 44 44 47 51
67 66 65 64 63 60 58 55 51 74 50 24 22 15 14 14 15 14 10 5 8 11 26 21 12 6 6 7 2 8 3 3 7 8 13 8 20 26 27 27 26 22 23 27 29 31 34 36 38 36 36 38 43 47
73 73 73 70 68 65 63 61 66 86 65 24 20 15 21 19 8 9 16 12 13 26 31 16 9 7 4 6 6 2 6 11 12 10 6 7 11 18 32 32 26 26 27 28 27 29 32 32 32 32 31 36 39 42
75 78 78 76 75 70 67 66 72 92 36 30 26 13 6 5 10 15 21 16 29 31 22 10 7 6 11 6 7 17 8 15 7 6 15 18 14 21 26 24 25 26 25 26 28 26 26 26 28 32 34 34 34 37
77 84 78 75 71 67 62 69 66 39 28 19 15 49 42 27 24 22 31 29 47 40 8 6 13 16 6 6 9 10 12 6 5 16 21 22 22 24 23 26 26 25 23 25 25 22 21 23 25 29 32 31 31 32
73 78 68 58 63 73 82 69 40 28 22 20 13 40 43 33 29 25 34 45 44 28 21 11 12 11 12 13 10 9 19 29 31 37 46 45 35 33 28 26 26 24 23 24 22 19 18 20 22 23 28 31 31 33
77 76 72 69 57 54 21 18 39 12 27 17 25 27 28 21 35 23 38 57 42 37 22 14 9 11 11 11 9 26 21 21 27 32 32 30 38 39 34 30 29 27 24 23 20 18 16 17 18 20 23 27 31 32
74 71 67 58 49 40 18 16 18 11 4 9 8 13 13 10 21 25 30 46 36 18 7 10 11 2 7 18 22 31 36 42 49 44 46 45 37 43 42 34 31 29 26 24 20 18 15 15 13 14 18 22 27 30
69 71 54 52 47 43 23 10 5 3 3 3 10 13 10 15 12 11 13 32 13 11 7 16 12 23 41 52 59 65 68 60 57 51 48 40 41 36 36 36 36 33 29 25 23 19 15 15 12 11 14 18 23 27
46 50 45 40 25 17 8 7 6 3 1 3 8 6 10 5 10 11 25 10 11 7 9 10 28 41 52 59 64 62 65 66 62 59 61 58 52 41 40 41 39 36 31 27 24 22 17 16 13 11 13 16 20 23
25 17 9 8 3 13 8 8 3 5 2 4 3 4 4 5 5 15 5 6 8 3 8 19 36 43 51 57 53 50 40 41 47 49 53 52 48 45 37 35 33 35 31 25 24 23 20 17 13 10 11 15 17 17
19 10 16 14 21 7 8 8 5 3 3 1 1 5 6 6 4 1 2 3 2 16 24 34 48 57 60 58 59 47 42 41 39 33 32 41 41 43 38 36 30 29 29 25 23 22 20 17 12 10 8 10 10 12
9 20 15 16 15 11 9 7 7 4 6 7 3 5 4 3 1 3 4 6 16 25 36 49 51 46 47 61 57 52 42 40 41 32 20 28 37 39 36 36 33 31 30 27 23 21 18 16 12 8 5 3 5 8
13 13 14 15 11 11 10 11 11 11 7 5 7 3 3 3 3 7 6 17 27 43 53 58 64 68 54 49 55 54 48 43 33 24 15 9 17 28 30 28 27 28 27 25 23 20 17 16 12 8 5 3 4 6
12 10 15 16 14 12 8 6 6 5 9 11 7 8 5 6 8 6 19 29 45 53 53 53 51 52 58 60 54 49 41 33 24 16 13 14 14 21 26 22 22 20 16 21 19 18 16 15 13 10 9 7 5 4
8 13 11 35 11 7 7 6 8 9 6 10 16 5 6 6 7 17 25 44 46 45 50 56 53 48 47 46 43 34 22 16 12 8 6 7 9 12 18 19 17 17 16 19 18 18 16 16 14 12 11 8 4 1
10 32 36 10 9 7 8 6 6 8 10 14 5 5 5 8 20 32 43 39 42 49 55 62 62 52 42 27 22 14 11 11 8 9 6 6 6 7 12 17 16 16 16 17 17 17 18 18 17 16 15 12 7 4
13 36 12 9 5 5 7 14 15 31 30 8 7 4 12 17 37 48 54 52 52 52 51 53 57 60 52 39 29 22 19 20 24 19 14 9 11 10 8 12 16 16 15 16 16 16 18 18 19 17 16 15 11 9
21 13 8 6 9 13 29 41 35 23 7 3 13 13 15 9 16 60 56 59 57 50 54 55 55 57 58 57 51 38 30 24 26 23 15 5 5 6 1 6 10 12 13 15 15 15 16 15 17 18 16 15 15 13
11 5 12 7 10 27 35 29 19 6 6 3 3 9 8 2 6 34 64 66 69 73 56 49 51 51 52 51 51 49 44 36 27 23 16 5 3 5 4 3 6 8 10 13 14 15 15 16 16 18 19 18 18 17
15 10 7 10 12 13 20 30 10 16 1 2 3 6 5 6 11 16 53 66 70 68 71 43 50 47 47 50 52 54 53 49 39 27 17 12 8 6 6 4 3 4 7 10 11 13 15 17 19 20 21 22 22 22
Wind_Direction_850mb
286 289 288 287 289 296 294 296 295 297 300 301 304 305 303 300 292 292 285 277 273 275 278 274 275 269 263 253 263 285 312 196 250 239 267 290 249 280 282 279 298 291 295 287 307 298 270 6 344 342 316 322 310 345
287 288 284 291 295 286 290 289 293 291 296 298 296 297 298 300 296 289 283 288 280 266 265 277 278 274 255 258 261 263 238 286 267 274 261 276 267 263 272 279 285 278 267 302 283 275 307 307 290 297 310 298 308 311
285 282 287 290 284 289 288 289 290 284 287 291 294 296 289 295 301 294 284 287 278 281 288 272 271 300 266 245 248 233 236 250 242 250 278 273 265 272 271 265 266 268 267 252 267 264 278 298 272 286 293 286 294 307
290 289 290 286 287 284 286 286 290 285 282 284 287 291 292 292 309 294 279 279 277 275 276 284 281 265 272 254 228 232 253 258 257 255 264 261 266 257 264 274 273 270 287 261 260 273 277 257 257 250 253 259 272 284
295 294 291 288 283 284 284 285 281 282 283 283 287 286 283 289 302 296 286 279 274 246 272 294 294 292 262 250 242 246 239 241 247 242 233 248 253 267 265 266 259 260 259 257 261 272 267 279 269 264 267 263 265 277
293 294 293 288 284 283 285 282 282 282 282 284 284 285 284 293 298 302 308 268 260 230 261 292 282 274 274 263 229 225 230 240 231 241 250 246 249 260 271 268 264 257 256 253 257 271 246 259 261 262 258 258 271 275
289 290 290 289 285 281 277 281 283 282 280 281 283 282 287 290 278 278 265 270 284 168 257 286 269 260 264 238 234 234 236 230 238 247 241 255 257 252 259 264 269 273 266 251 249 248 267 262 243 233 260 261 275 282
286 287 287 287 282 279 280 279 282 283 281 280 282 280 283 293 292 283 238 247 244 223 232 259 267 272 238 211 215 219 212 221 227 249 270 257 273 225 250 252 267 271 262 234 246 249 246 251 257 266 272 276 276 284
285 285 285 286 280 280 277 278 281 282 283 278 277 286 293 286 223 229 225 227 224 204 228 221 233 289 216 233 246 261 237 252 246 247 211 246 227 227 243 252 256 257 237 251 233 239 243 254 267 276 279 280 287 291
285 285 285 284 280 276 275 279 279 278 275 272 276 291 257 222 222 274 254 221 209 218 233 244 213 233 301 201 206 286 209 279 265 161 308 229 252 253 254 256 257 266 240 223 193 237 250 263 273 278 284 289 291 293
285 285 283 280 277 275 274 274 274 267 260 262 235 221 238 240 251 234 228 211 185 233 224 233 211 228 227 224 225 4 327 227 263 149 260 246 260 237 231 235 232 216 215 219 233 252 264 274 283 289 293 295 297 298
282 280 278 277 275 273 271 267 264 249 244 243 244 238 246 229 207 232 212 181 217 233 193 189 171 191 195 179 204 157 256 178 253 16 253 256 252 229 222 223 206 204 214 233 253 270 283 289 292 292 294 298 300 300
284 282 280 278 276 272 267 260 256 249 241 246 222 222 185 183 215 215 201 203 221 189 179 165 147 161 137 159 115 197 227 233 353 232 238 241 267 242 219 196 191 204 230 258 279 289 293 297 297 300 303 305 304 304
284 281 280 278 276 272 266 259 252 235 216 196 180 213 210 195 232 200 212 166 154 139 151 139 119 172 153 160 111 229 178 296 250 238 239 243 243 245 216 201 207 226 254 275 283 290 295 299 302 306 308 309 308 309
284 282 281 279 275 269 263 256 248 227 208 187 183 221 213 217 208 200 196 161 156 154 139 116 106 174 149 201 201 288 226 242 232 236 240 287 268 227 202 210 227 252 269 277 283 294 298 300 304 312 317 317 316 315
287 285 279 278 276 269 263 257 237 209 220 205 202 206 141 186 190 205 198 177 173 154 138 121 131 171 225 193 183 216 231 225 235 224 259 275 259 207 204 224 252 263 269 277 287 294 297 303 312 321 327 327 325 320
294 289 287 284 278 273 262 252 220 209 222 212 218 218 222 233 223 197 187 184 177 153 178 157 190 211 102 206 230 212 223 239 292 302 299 291 253 225 233 251 259 261 267 278 286 291 297 304 315 324 329 335 333 330
287 288 290 296 281 274 256 245 222 218 225 211 205 217 207 213 200 193 188 176 162 183 163 192 132 192 212 208 220 221 239 266 283 292 293 283 254 239 252 258 259 259 268 277 280 282 291 301 315 330 335 340 344 344
291 289 288 287 287 283 261 233 227 232 216 219 224 219 198 190 199 200 190 182 183 171 162 160 211 215 221 223 259 282 294 296 299 296 296 284 255 248 254 256 255 258 267 270 270 270 281 295 314 333 341 347 349 349
289 290 287 280 275 276 254 230 216 254 235 199 174 150 147 152 175 173 170 177 169 159 180 207 222 338 337 345 321 306 301 298 299 297 293 289 280 254 250 252 250 254 261 261 258 256 267 282 303 329 339 346 349 352
296 297 290 284 271 259 261 245 267 349 325 154 150 140 112 131 123 140 138 163 174 213 233 246 268 289 301 304 304 302 296 289 273 268 273 280 283 260 248 247 242 248 253 254 250 249 253 267 286 314 333 343 345 345
295 292 285 267 247 226 198 186 131 133 71 94 126 117 114 128 129 130 151 171 222 238 233 302 322 328 325 322 315 308 301 291 276 269 266 263 259 246 247 249 242 246 249 249 245 243 247 257 274 300 325 338 340 344
321 313 279 355 43 41 13 76 16 24 209 140 145 140 99 87 75 143 210 235 258 258 312 325 337 337 331 337 332 330 321 310 293 275 264 259 248 240 243 247 244 242 245 243 240 237 241 250 262 288 320 335 345 354
357 27 23 28 22 23 7 17 22 46 99 61 229 97 53 44 86 42 303 291 1 358 342 333 332 329 330 332 339 336 332 325 312 296 264 251 245 236 240 248 245 238 239 238 235 231 237 244 255 278 312 336 359 17
57 14 21 2 6 344 0 359 346 327 50 29 47 68 54 23 10 56 3 353 348 335 323 322 318 315 312 318 325 326 324 323 327 311 302 252 239 235 241 245 240 236 234 233 232 231 234 238 242 255 281 348 32 39
60 9 22 355 338 356 346 339 8 2 1 55 41 53 343 320 27 53 30 340 333 330 326 325 323 319 314 313 308 310 313 316 313 309 297 283 237 236 242 244 241 235 235 229 226 225 226 231 230 232 223 172 88 46
40 354 339 346 317 306 283 309 298 359 28 22 5 354 350 28 49 22 340 344 330 337 338 337 329 319 312 311 308 302 301 306 296 285 283 280 260 233 226 240 238 233 238 222 221 220 217 222 217 211 203 179 139 78
18 360 340 320 329 338 305 351 23 19 30 16 329 342 19 48 20 337 326 344 346 350 355 355 350 338 327 317 309 303 297 312 296 281 285 302 287 242 228 228 226 227 214 207 213 213 209 215 205 205 207 201 180 113
338 340 339 319 322 320 11 24 4 353 359 355 294 346 65 64 14 7 6 5 9 9 6 4 6 3 3 6 10 13 2 356 1 354 342 346 327 289 252 232 221 212 207 209 209 212 210 211 203 199 209 208 217 261
317 334 314 312 4 299 343 329 313 314 319 285 212 134 104 68 38 31 26 23 19 15 14 14 13 18 19 21 26 28 28 23 10 356 330 331 340 322 281 217 212 214 213 214 214 215 217 222 220 210 217 228 235 250
296 307 299 285 270 296 322 325 329 334 13 73 176 167 163 159 57 27 26 27 23 23 22 20 23 23 25 27 25 19 13 1 355 352 343 259 340 358 17 200 207 211 216 218 218 220 221 220 232 236 235 247 259 270
296 309 339 299 288 308 319 328 337 356 16 52 133 180 196 132 79 25 27 31 29 26 24 24 21 20 25 28 28 24 19 12 8 12 16 16 309 341 342 261 231 225 229 231 231 231 235 237 238 247 252 253 258 267
296 302 290 291 301 322 326 340 344 358 28 67 123 154 142 78 82 41 36 37 30 24 21 21 28 22 21 24 29 29 27 26 26 24 22 25 22 8 349 335 299 264 251 248 248 249 249 252 256 259 263 265 268 271